| time (UTC) | temp C | wind direction | speed KPH | gust KPH | rain 1hr cm | rain 24hr cm | rain mn cm | humidity % | barometer mb |
| 20260503212007 | 16 | 253 | 22.5 | 40.2 | 0.00 | 0.00 | 0.00 | 55 | 1011.6 |
| 20260503211840 | 16 | 213 | 16.1 | 48.3 | 0.00 | 0.00 | 0.00 | 55 | 1012.8 |
| 20260503211004 | 16 | 265 | 29.0 | 45.1 | 0.00 | 0.00 | 0.00 | 57 | 1011.9 |
| 20260503210003 | 16 | 262 | 33.8 | 48.3 | 0.00 | 0.00 | 0.00 | 58 | 1011.6 |
| 20260503205447 | 16 | 277 | 27.4 | 53.1 | 0.00 | 0.00 | 0.00 | 61 | 1011.9 |
| 20260503204856 | 16 | 242 | 35.4 | 53.1 | 0.00 | 0.00 | 0.00 | 60 | 1013.1 |
| 20260503204004 | 17 | 260 | 27.4 | 45.1 | 0.00 | 0.00 | 0.00 | 62 | 1011.9 |
| 20260503203005 | 16 | 236 | 20.9 | 45.1 | 0.00 | 0.00 | 0.00 | 61 | 1011.9 |
| 20260503202004 | 16 | 254 | 32.2 | 48.3 | 0.00 | 0.00 | 0.00 | 66 | 1011.9 |
| 20260503201900 | 16 | 210 | 30.6 | 56.3 | 0.00 | 0.00 | 0.00 | 68 | 1013.1 |
| 20260503201004 | 16 | 234 | 29.0 | 56.3 | 0.00 | 0.00 | 0.00 | 67 | 1012.2 |
| 20260503200238 | 16 | 262 | 25.7 | 56.3 | 0.00 | 0.00 | 0.00 | 67 | 1013.1 |
| 20260503200003 | 16 | 273 | 20.9 | 53.1 | 0.00 | 0.00 | 0.00 | 65 | 1011.9 |
| 20260503195001 | 16 | 248 | 35.4 | 48.3 | 0.00 | 0.00 | 0.00 | 69 | 1011.9 |
| 20260503194005 | 16 | 239 | 38.6 | 56.3 | 0.00 | 0.00 | 0.00 | 69 | 1012.2 |
| 20260503193441 | 16 | 254 | 30.6 | 45.1 | 0.00 | 0.00 | 0.00 | 67 | 1012.6 |
| 20260503192446 | 16 | 285 | 24.1 | 40.2 | 0.00 | 0.00 | 0.00 | 65 | 1012.2 |
| 20260503191818 | 16 | 314 | 27.4 | 40.2 | 0.00 | 0.00 | 0.00 | 67 | 1013.4 |
| 20260503191002 | 16 | 254 | 22.5 | 37.0 | 0.00 | 0.00 | 0.00 | 66 | 1012.6 |
| 20260503190005 | 16 | 282 | 19.3 | 32.2 | 0.00 | 0.00 | 0.00 | 66 | 1012.2 |
| 20260503185003 | 16 | 289 | 16.1 | 32.2 | 0.00 | 0.00 | 0.00 | 67 | 1012.6 |
| 20260503184807 | 15 | 271 | 25.7 | 37.0 | 0.00 | 0.00 | 0.00 | 65 | 1013.8 |
| 20260503184004 | 15 | 270 | 14.5 | 37.0 | 0.00 | 0.00 | 0.00 | 65 | 1012.6 |
| 20260503183006 | 16 | 286 | 17.7 | 37.0 | 0.00 | 0.00 | 0.00 | 67 | 1012.6 |
| 20260503182004 | 16 | 265 | 14.5 | 27.4 | 0.00 | 0.00 | 0.00 | 66 | 1012.6 |
| 20260503181814 | 15 | 249 | 16.1 | 40.2 | 0.00 | 0.00 | 0.00 | 64 | 1013.8 |
| 20260503181005 | 16 | 266 | 20.9 | 40.2 | 0.00 | 0.00 | 0.00 | 65 | 1012.6 |
| 20260503180249 | 15 | 42 | 1.6 | 16.1 | 0.00 | 0.00 | 0.00 | 66 | 1013.8 |
| 20260503180003 | 16 | 282 | 11.3 | 27.4 | 0.00 | 0.00 | 0.00 | 64 | 1012.6 |
| 20260503175004 | 15 | 268 | 16.1 | 20.9 | 0.00 | 0.00 | 0.00 | 64 | 1012.6 |
| 20260503174003 | 15 | 291 | 9.7 | 16.1 | 0.00 | 0.00 | 0.00 | 66 | 1012.6 |
| 20260503173447 | 15 | 14 | 0.0 | 12.9 | 0.00 | 0.00 | 0.00 | 69 | 1012.6 |
| 20260503172003 | 15 | 75 | 9.7 | 12.9 | 0.00 | 0.00 | 0.00 | 73 | 1012.6 |
| 20260503171759 | 15 | 76 | 8.0 | 20.9 | 0.00 | 0.00 | 0.00 | 73 | 1013.8 |
| 20260503171003 | 14 | 16 | 0.0 | 12.9 | 0.00 | 0.00 | 0.00 | 73 | 1012.2 |
| 20260503170444 | 14 | 221 | 6.4 | 20.9 | 0.00 | 0.00 | 0.00 | 76 | 1012.2 |
| 20260503150948 | 12 | 301 | 8.0 | 16.1 | 0.00 | 0.00 | 0.00 | 83 | 1011.6 |
| 20260503130931 | 12 | 261 | 9.7 | 24.1 | 0.00 | 0.00 | 0.00 | 87 | 1010.2 |
| 20260503081603 | 12 | 2 | 0.0 | 8.0 | 0.00 | 0.00 | 0.00 | 83 | 1011.4 |
| 20260503080904 | 12 | 16 | 0.0 | 8.0 | 0.00 | 0.00 | 0.00 | 83 | 1010.5 |
| 20260503080340 | 12 | 327 | 3.2 | 8.0 | 0.00 | 0.00 | 0.00 | 84 | 1010.5 |
| 20260503072901 | 13 | 334 | 3.2 | 8.0 | 0.00 | 0.00 | 0.00 | 86 | 1010.5 |
| 20260503072344 | 13 | 339 | 3.2 | 12.9 | 0.00 | 0.00 | 0.00 | 86 | 1010.5 |
| 20260503071630 | 13 | 120 | 3.2 | 12.9 | 0.00 | 0.00 | 0.00 | 86 | 1011.7 |
| 20260503070900 | 13 | 146 | 4.8 | 8.0 | 0.00 | 0.00 | 0.00 | 86 | 1010.5 |
| 20260503054901 | 12 | 328 | 6.4 | 20.9 | 0.00 | 0.00 | 0.00 | 89 | 1010.2 |
| 20260503054539 | 12 | 279 | 12.9 | 32.2 | 0.00 | 0.00 | 0.00 | 89 | 1011.1 |
| 20260503053904 | 12 | 332 | 9.7 | 24.1 | 0.00 | 0.00 | 0.00 | 89 | 1009.9 |
| 20260503053354 | 12 | 313 | 17.7 | 32.2 | 0.00 | 0.00 | 0.00 | 89 | 1009.9 |
| 20260503051903 | 12 | 283 | 24.1 | 27.4 | 0.00 | 0.00 | 0.00 | 88 | 1009.9 |
| 20260503051532 | 12 | 326 | 11.3 | 27.4 | 0.00 | 0.00 | 0.00 | 88 | 1011.1 |
| 20260503051343 | 12 | 325 | 9.7 | 27.4 | 0.00 | 0.00 | 0.00 | 88 | 1009.9 |
| 20260503045902 | 12 | 298 | 16.1 | 24.1 | 0.00 | 0.00 | 0.00 | 88 | 1009.9 |
| 20260503044902 | 12 | 271 | 17.7 | 24.1 | 0.00 | 0.00 | 0.00 | 87 | 1009.9 |
| 20260503044534 | 13 | 327 | 8.0 | 24.1 | 0.00 | 0.00 | 0.00 | 87 | 1011.4 |
| 20260503043901 | 13 | 309 | 8.0 | 20.9 | 0.00 | 0.00 | 0.00 | 86 | 1009.9 |
| 20260503042904 | 13 | 253 | 8.0 | 24.1 | 0.00 | 0.00 | 0.00 | 86 | 1009.9 |
| 20260503042337 | 13 | 2 | 3.2 | 20.9 | 0.00 | 0.00 | 0.00 | 87 | 1009.9 |
| 20260503041523 | 13 | 322 | 12.9 | 24.1 | 0.00 | 0.00 | 0.00 | 86 | 1011.1 |
| 20260503040902 | 13 | 335 | 14.5 | 24.1 | 0.00 | 0.00 | 0.00 | 86 | 1009.9 |
| 20260503035901 | 13 | 311 | 12.9 | 20.9 | 0.00 | 0.00 | 0.00 | 84 | 1009.9 |
| 20260503034902 | 13 | 353 | 3.2 | 20.9 | 0.00 | 0.00 | 0.00 | 84 | 1009.9 |
| 20260503034522 | 13 | 320 | 8.0 | 24.1 | 0.00 | 0.00 | 0.00 | 84 | 1011.1 |
| 20260503033902 | 13 | 311 | 11.3 | 16.1 | 0.00 | 0.00 | 0.00 | 84 | 1009.9 |
| 20260503032903 | 13 | 300 | 8.0 | 24.1 | 0.00 | 0.00 | 0.00 | 84 | 1009.9 |
| 20260503031902 | 13 | 317 | 14.5 | 24.1 | 0.00 | 0.00 | 0.00 | 84 | 1009.9 |
| 20260503031521 | 13 | 13 | 4.8 | 27.4 | 0.00 | 0.00 | 0.00 | 85 | 1010.7 |
| 20260503030902 | 13 | 302 | 17.7 | 27.4 | 0.00 | 0.00 | 0.00 | 84 | 1009.5 |
| 20260503025903 | 13 | 288 | 14.5 | 27.4 | 0.00 | 0.00 | 0.00 | 84 | 1009.5 |
| 20260503024524 | 13 | 295 | 9.7 | 32.2 | 0.00 | 0.00 | 0.00 | 84 | 1010.7 |
| 20260503023904 | 13 | 300 | 19.3 | 27.4 | 0.00 | 0.00 | 0.00 | 84 | 1009.2 |
| 20260503022901 | 13 | 299 | 22.5 | 27.4 | 0.00 | 0.00 | 0.00 | 83 | 1009.2 |
| 20260503021903 | 13 | 247 | 14.5 | 27.4 | 0.00 | 0.00 | 0.00 | 82 | 1009.2 |
| 20260503021520 | 13 | 236 | 16.1 | 37.0 | 0.00 | 0.00 | 0.00 | 82 | 1010.7 |
| 20260503020905 | 14 | 285 | 14.5 | 32.2 | 0.00 | 0.00 | 0.00 | 81 | 1009.2 |
| 20260503020342 | 14 | 349 | 14.5 | 37.0 | 0.00 | 0.00 | 0.00 | 81 | 1009.5 |
| 20260503015343 | 14 | 278 | 25.7 | 32.2 | 0.00 | 0.00 | 0.00 | 80 | 1009.5 |
| 20260503014454 | 14 | 307 | 11.3 | 37.0 | 0.00 | 0.00 | 0.00 | 81 | 1010.7 |
| 20260503014342 | 14 | 289 | 9.7 | 37.0 | 0.00 | 0.00 | 0.00 | 80 | 1009.2 |
| 20260503012902 | 14 | 258 | 14.5 | 37.0 | 0.00 | 0.00 | 0.00 | 79 | 1009.5 |
| 20260503011902 | 15 | 274 | 24.1 | 37.0 | 0.00 | 0.00 | 0.00 | 78 | 1009.5 |
| 20260503011448 | 15 | 303 | 9.7 | 40.2 | 0.00 | 0.00 | 0.00 | 78 | 1010.7 |
| 20260503010904 | 15 | 276 | 20.9 | 40.2 | 0.00 | 0.00 | 0.00 | 77 | 1009.5 |
| 20260503005904 | 15 | 283 | 24.1 | 40.2 | 0.00 | 0.00 | 0.00 | 74 | 1009.5 |
| 20260503004900 | 15 | 298 | 14.5 | 32.2 | 0.00 | 0.00 | 0.00 | 75 | 1009.5 |
| 20260503004437 | 15 | 313 | 17.7 | 37.0 | 0.00 | 0.00 | 0.00 | 75 | 1011.1 |
| 20260503003901 | 15 | 280 | 17.7 | 37.0 | 0.00 | 0.00 | 0.00 | 76 | 1009.5 |
| 20260503002901 | 15 | 241 | 16.1 | 37.0 | 0.00 | 0.00 | 0.00 | 75 | 1009.5 |
| 20260503001906 | 15 | 280 | 20.9 | 37.0 | 0.00 | 0.00 | 0.00 | 74 | 1009.5 |
| 20260503001444 | 15 | 248 | 19.3 | 40.2 | 0.00 | 0.00 | 0.00 | 74 | 1011.1 |
| 20260503000903 | 15 | 268 | 17.7 | 40.2 | 0.00 | 0.00 | 0.00 | 74 | 1009.9 |
| 20260502235901 | 16 | 267 | 19.3 | 37.0 | 0.00 | 0.00 | 0.00 | 73 | 1009.9 |
| 20260502234905 | 16 | 281 | 30.6 | 37.0 | 0.00 | 0.00 | 0.00 | 73 | 1009.5 |
| 20260502234435 | 16 | 280 | 25.7 | 40.2 | 0.00 | 0.00 | 0.00 | 72 | 1011.1 |
| 20260502233900 | 16 | 259 | 24.1 | 40.2 | 0.00 | 0.00 | 0.00 | 73 | 1009.9 |
| 20260502232902 | 16 | 296 | 19.3 | 37.0 | 0.00 | 0.00 | 0.00 | 71 | 1009.9 |
| 20260502232834 | 15 | 262 | 20.9 | 45.1 | 0.00 | 0.00 | 0.00 | 72 | 1011.4 |
| 20260502231905 | 15 | 236 | 24.1 | 37.0 | 0.00 | 0.00 | 0.00 | 75 | 1009.9 |
| 20260502230904 | 16 | 308 | 25.7 | 45.1 | 0.00 | 0.00 | 0.00 | 74 | 1010.2 |
| 20260502225902 | 15 | 262 | 22.5 | 40.2 | 0.00 | 0.00 | 0.00 | 75 | 1010.2 |
| 20260502224422 | 15 | 253 | 25.7 | 45.1 | 0.00 | 0.00 | 0.00 | 74 | 1011.7 |
| 20260502223905 | 15 | 236 | 25.7 | 45.1 | 0.00 | 0.00 | 0.00 | 76 | 1010.5 |
| 20260502222901 | 15 | 282 | 37.0 | 45.1 | 0.00 | 0.00 | 0.00 | 74 | 1010.5 |
| 20260502222334 | 15 | 272 | 16.1 | 40.2 | 0.00 | 0.00 | 0.00 | 77 | 1010.9 |
| 20260502221430 | 15 | 285 | 24.1 | 40.2 | 0.00 | 0.00 | 0.00 | 76 | 1011.7 |
| 20260502220852 | 15 | 291 | 30.6 | 37.0 | 0.00 | 0.00 | 0.00 | 75 | 1010.9 |
| 20260502220330 | 15 | 253 | 16.1 | 32.2 | 0.00 | 0.00 | 0.00 | 76 | 1010.9 |
| 20260502214851 | 15 | 254 | 14.5 | 0.0 | 0.00 | 0.00 | 0.00 | 77 | 1011.2 |
| 20260502214420 | 15 | 291 | 27.4 | 40.2 | 0.00 | 0.00 | 0.00 | 77 | 1012.4 |
| 20260502214231 | 15 | 229 | 14.5 | 37.0 | 0.00 | 0.00 | 0.00 | 77 | 1011.2 |
| 20260502213703 | 15 | 270 | 22.5 | 40.2 | 0.00 | 0.00 | 0.00 | 75 | 1011.6 |
| 20260502212229 | 15 | 235 | 27.4 | 37.0 | 0.00 | 0.00 | 0.00 | 74 | 1011.6 |